Printer-friendly version

IAU Minor Planet Center

Minor Planet Center

MPEC 2007-R82 : 2005 XL80

The following Minor Planet Electronic Circular may be linked-to from your own Web pages, but must not otherwise be redistributed electronically.


Read MPEC 2007-R81 Read MPEC 2007-R83


M.P.E.C. 2007-R82                                Issued 2007 Sept. 14, 18:52 UT

     The Minor Planet Electronic Circulars contain information on unusual
         minor planets and routine data on comets.  They are published
   on behalf of Commission 20 of the International Astronomical Union by the
          Minor Planet Center, Smithsonian Astrophysical Observatory,
                          Cambridge, MA 02138, U.S.A.

             Prepared using the Tamkin Foundation Computer Network

                              MPC@CFA.HARVARD.EDU
          URL http://www.cfa.harvard.edu/iau/mpc.html  ISSN 1523-6714

                                   2005 XL80

                           Revision to MPEC 2005-X83

Additional Observations:
     K05X80L  C2007 09 12.35038604 00 12.42 +16 47 49.0          23.0   ER082H55
     K05X80L  C2007 09 12.36837204 00 12.78 +16 47 50.2          23.1   ER082H55
     K05X80L  C2007 09 12.38632104 00 13.12 +16 47 53.1          22.9   ER082H55
     K05X80L  C2007 09 14.38816304 00 50.82 +16 52 02.4          22.7   ER082H55
     K05X80L  C2007 09 14.41875304 00 51.25 +16 52 06.4          22.8   ER082H55

Observer details:
H55 Astronomical Research Observatory, Charleston.  Observer R. Holmes.
    Measurer W. Lovett.  0.81-m f/4.0 astrograph + CCD.

First and last observations above in comparison with prediction:
Residuals in seconds of arc, reference and Delta-T
070912 H55 19.6-  6.9-    070914 H55 20.2-  8.0-    MPO111152   +0.027 day

Orbital elements:
2005 XL80                                           PHA, Earth MOID = 0.0416 AU
Epoch 2007 Oct. 27.0 TT = JDT 2454400.5                 MPC
M 250.05995              (2000.0)            P               Q
n   0.43463050     Peri.  143.44582     -0.94812525     +0.27927823
a   1.7260601      Node    53.46669     -0.31754370     -0.80950285
e   0.4875337      Incl.   10.89435     -0.01498379     -0.51643859
P   2.27           H   18.1           G   0.15           U   1
Residuals in seconds of arc
051208 703  0.5+  0.1-    060111 703  0.2-  0.8+    060131 151  0.1-  0.2+
051208 703  0.9+  0.8-    060111 703  0.2+  1.1+    060131 151  0.4+  0.0
051208 703  0.3-  0.8+    060111 703  0.8-  0.1-    060131 151  0.2+  0.1-
051208 703  0.3-  0.3+    060111 703  0.9-  0.3+    060131 151  0.0   0.2+
051214 699  0.2-  0.6+    060111 703  0.2+  0.0     060201 198  0.4-  0.1-
051214 699  1.3+  0.8+    060111 703  0.7+  0.8+    060201 198  0.4-  0.1-
051214 699  0.6-  1.2+    060111 703  0.6-  0.2+    060201 198  0.3-  0.1-
051214 699  0.6-  0.6-    060111 703  0.1-  0.6+    060201 198  0.1-  0.2-
051215 H36  0.4-  0.0     060112 084  0.4-  0.5+    060201 A48  0.7-  0.8+
051215 H36  0.8-  0.5-    060113 084  0.2-  0.7+    060201 A48  0.8-  1.1+
051215 H36  0.3-  0.2+    060113 084  0.1-  0.3-    060201 A48  0.9-  0.8+
051215 H36  1.2+  0.1-    060118 084  0.1-  0.4+    060201 A48  1.0-  0.7+
051216 673  0.4+  0.3+    060118 084  0.1-  0.5+    060209 J69  1.2+  0.8-
051216 673  0.2+  0.3+    060119 084  0.2-  0.1-    060209 J69  1.0+  0.6-
051216 673  0.4-  0.3+    060120 940  0.5-  0.7+    060209 J69  0.8+  0.1+
051216 673  0.4+  0.6+    060120 940  0.4-  0.1+    060209 J69  1.3+  0.2-
051218 J95  0.4+  0.2+    060120 940  0.0   0.3+    060209 J69  1.5+  0.1-
051218 J95  0.1+  0.0     060120 940  0.1+  0.8+    060217 704  1.2+  0.2+
051218 J95  0.4+  0.1-    060122 670  0.6+  0.2+    060217 704  1.0+  0.8-
051222 704  0.6+  0.4+    060122 670  0.2+  0.4+    060217 704  0.6+  0.5-
051222 704  0.9+  0.8+    060122 670  0.3+  0.6+    060217 704  0.9+  1.0+
051222 704  0.6+  0.2+    060122 130  0.2+  0.0     060331 H36 (2.0-  2.5+)
051222 704  0.6+  0.0     060122 130  0.5+  0.2+    060331 H36  0.7-  0.7-
051222 704  1.1+  0.5-    060122 130  0.3+  0.1+    060331 H36 (0.6-  4.9+)
051229 703  0.0   0.5+    060122 130  0.5+  0.1+    060424 568  0.1-  0.2+
051229 703  0.3-  0.5+    060122 130  0.3+  0.2+    060424 568  0.1-  0.2+
051229 703  0.1+  0.6+    060123 127  0.1-  0.6+    060607 E12  0.1-  0.1+
051229 711  0.1+  0.4+    060123 127  0.1-  0.7+    060607 E12  0.0   0.2-
051229 711  0.3+  0.5+    060124 A48  0.4-  0.8+    060607 E12  0.0   0.5+
051229 711  0.0   0.3+    060124 A48  0.2-  0.8+    060618 E12  0.3+  0.1+
060105 G77  0.3+  0.4+    060124 A48  0.2-  0.9+    060618 E12  0.0   0.1-
060105 G77  0.2+  0.9+    060124 A48  0.2-  0.6+    060618 E12  0.6+  0.1-
060105 G77  0.0   0.5+    060129 127  0.0   0.4-    060618 E12  1.0+  0.5+
060105 G77  1.6-  1.9+    060129 127  0.2+  0.5-    060705 E12  0.2+  0.3-
060108 084  0.3-  0.1+    060130 711  0.3-  0.3+    060705 E12  0.3-  0.5+
060108 084  0.0   0.0     060130 711  0.1+  0.1-    060705 E12  0.4-  0.3+
060108 240  0.2-  0.3+    060130 711  0.3+  0.2-    060705 E12  0.3-  0.2-
060108 240  0.2-  0.2+    060130 699  0.3+  0.4-    060726 E12  0.2-  0.3+
060108 240  0.1-  0.2+    060130 699  0.1-  0.2+    060726 E12  0.1-  0.2-
060108 240  0.1-  0.3+    060130 699  0.4-  0.2+    060726 E12  0.5-  0.0
060108 240  0.1-  0.5+    060130 699  0.1+  0.4-    060726 E12  0.3-  0.3+
060108 240  0.1+  0.5+    060130 127  0.1+  0.9-    060816 568  0.0   0.2+
060108 240  0.1+  0.6+    060130 127  0.0   0.7-    060816 568  0.0   0.2+
060108 240  0.1+  0.6+    060130 127  0.1+  0.9-    060816 568  0.0   0.2+
060108 084  0.2-  0.5+    060131 699  0.6+  0.1-    070912 H55  0.5-  1.1+
060108 084  0.3-  0.3+    060131 699  0.7+  0.3-    070912 H55  0.3-  0.0
060109 A30  0.1+  0.4+    060131 699  0.8+  0.0     070912 H55  0.3-  0.6+
060109 A30  0.1+  0.5+    060131 699  0.5+  0.8+    070914 H55  0.1+  0.1-
060109 A30  0.2+  0.4+    060131 151  0.1-  0.1-    070914 H55  0.6-  0.1+
060109 A30  0.0   0.2+    060131 151  0.1-  0.0

Ephemeris:
2005 XL80                a,e,i = 1.73, 0.49, 11                  q = 0.8845
Date    TT    R. A. (2000) Decl.     Delta      r     Elong.  Phase     V
2007 09 07    03 58.01   +16 35.7    1.997    2.431   103.0    23.8    22.6
2007 09 17    04 01.50   +16 57.2    1.843    2.405   111.9    22.8    22.4
2007 09 27    04 02.11   +17 13.7    1.695    2.377   121.4    21.1    22.2
2007 10 07    03 59.33   +17 24.9    1.558    2.347   131.9    18.5    21.9
2007 10 17    03 52.66   +17 30.2    1.436    2.314   143.3    14.9    21.5
2007 10 27    03 41.98   +17 28.6    1.335    2.278   155.7    10.3    21.2
2007 11 06    03 27.69   +17 19.1    1.259    2.241   169.1     4.8    20.8
2007 11 16    03 10.94   +17 02.3    1.212    2.201   176.8     1.5    20.4
2007 11 26    02 53.65   +16 41.4    1.196    2.158   162.7     7.8    20.7
2007 12 06    02 37.89   +16 21.9    1.207    2.113   148.8    14.0    20.9
2007 12 16    02 25.37   +16 10.7    1.243    2.065   135.7    19.4    21.1

Timothy B. Spahr             (C) Copyright 2007 MPC           M.P.E.C. 2007-R82

Read MPEC 2007-R81 Read MPEC 2007-R83


Our Web policy. Index to the CBAT/MPC/ICQ pages.


Valid HTML 4.01!